Sparta, IL

2:42 PM CDT on July 25, 2017 (GMT -0500)
Sparta Community-Hunter

Weather History for KSAR - January, 2013

Change the Weather History Date:

Saturday, January 19, 2013

  Actual Average (KBLV) Record (KBLV)
Temperature  
Mean Temperature 50 °F -  
Max Temperature 60 °F 38 °F 71 °F (1952)
Min Temperature 39 °F 18 °F -16 °F (1984)
Degree Days  
Heating Degree Days 16    
Moisture  
Dew Point 32 °F    
Average Humidity 60    
Maximum Humidity 87    
Minimum Humidity 17    
Precipitation  
Precipitation 0.00 in - - ()
Sea Level Pressure  
Sea Level Pressure 30.08 in    
Wind  
Wind Speed 13 mph (SSW)    
Max Wind Speed 18 mph    
Max Gust Speed 24 mph    
Visibility 10 miles    
Events      
Averages and records for this station are not official NWS values.
T = Trace of Precipitation, MM = Missing Value Source: NWS Daily Summary

Daily Weather History Graph

Daily Weather History Graph

Search for Another Location

Airport or City:

Trip Planner

Search our weather history database for the weather conditions in past years. The results will help you decide how hot, cold, wet, or windy it might be!

Date:

Astronomy

Jan. 19, 2013 Rise Set
Actual Time 7:12 AM CST 5:07 PM CST
Civil Twilight 6:43 AM CST 5:36 PM CST
Nautical Twilight 6:11 AM CST 6:08 PM CST
Astronomical Twilight 5:39 AM CST 6:39 PM CST
Moon 11:32 AM CST (1/19) 12:47 AM CST (1/19)
Length of Visible Light 10h 52m
Length of Day
9h 55m
First Quarter, 57% of the Moon is Illuminated
Jan 19
First Quarter
Jan 26
Full
Feb 3
Last Quarter
Feb 10
New
Feb 17
First Quarter

Hourly Weather History & Observations

Time (CST) Temp. Windchill Dew Point Humidity Pressure Visibility Wind Dir Wind Speed Gust Speed Precip Events Conditions
12:15 AM 39.2 °F 30.8 °F 35.6 °F 87% 30.18 in 10.0 mi SSW 15.0 mph 20.7 mph N/A   Clear
12:35 AM 39.2 °F 31.2 °F 35.6 °F 87% 30.18 in 10.0 mi South 13.8 mph 19.6 mph N/A   Clear
12:55 AM 39.2 °F 30.8 °F 33.8 °F 81% 30.19 in 10.0 mi South 15.0 mph 19.6 mph N/A   Clear
1:15 AM 39.2 °F 31.6 °F 33.8 °F 81% 30.19 in 10.0 mi SSW 12.7 mph 21.9 mph N/A   Clear
1:35 AM 39.2 °F 32.0 °F 33.8 °F 81% 30.20 in 10.0 mi South 11.5 mph - N/A   Clear
1:55 AM 39.2 °F 32.5 °F 33.8 °F 81% 30.20 in 10.0 mi South 10.4 mph - N/A   Clear
2:15 AM 39.2 °F 32.0 °F 33.8 °F 81% 30.19 in 10.0 mi South 11.5 mph - N/A   Clear
2:35 AM 39.2 °F 32.5 °F 33.8 °F 81% 30.19 in 10.0 mi South 10.4 mph - N/A   Clear
2:55 AM 39.2 °F 32.0 °F 33.8 °F 81% 30.18 in 10.0 mi South 11.5 mph 16.1 mph N/A   Clear
3:15 AM 39.2 °F 32.0 °F 33.8 °F 81% 30.18 in 10.0 mi South 11.5 mph - N/A   Clear
3:35 AM 39.2 °F 31.2 °F 33.8 °F 81% 30.17 in 10.0 mi South 13.8 mph - N/A   Clear
3:55 AM 39.2 °F 31.2 °F 33.8 °F 81% 30.16 in 10.0 mi South 13.8 mph 18.4 mph N/A   Clear
4:15 AM 39.2 °F 31.2 °F 33.8 °F 81% 30.15 in 10.0 mi South 13.8 mph 19.6 mph N/A   Clear
4:35 AM 39.2 °F 30.8 °F 33.8 °F 81% 30.15 in 10.0 mi South 15.0 mph 20.7 mph N/A   Clear
4:55 AM 39.2 °F 31.6 °F 33.8 °F 81% 30.15 in 10.0 mi SSW 12.7 mph 19.6 mph N/A   Clear
5:15 AM 39.2 °F 30.8 °F 33.8 °F 81% 30.14 in 10.0 mi South 15.0 mph 20.7 mph N/A   Clear
5:35 AM 39.2 °F 30.5 °F 32.0 °F 75% 30.14 in 10.0 mi South 16.1 mph 21.9 mph N/A   Clear
6:35 AM 39.2 °F 30.8 °F 32.0 °F 75% 30.14 in 10.0 mi South 15.0 mph 19.6 mph N/A   Clear
6:55 AM 39.2 °F 31.2 °F 32.0 °F 75% 30.13 in 10.0 mi South 13.8 mph 19.6 mph N/A   Clear
7:15 AM 39.2 °F 31.2 °F 32.0 °F 75% 30.13 in 10.0 mi South 13.8 mph - N/A   Clear
7:55 AM 39.2 °F 31.6 °F 33.8 °F 81% 30.12 in 10.0 mi South 12.7 mph 17.3 mph N/A   Clear
8:35 AM 41.0 °F 33.5 °F 33.8 °F 76% 30.12 in 10.0 mi South 13.8 mph 21.9 mph N/A   Clear
9:55 AM 44.6 °F 38.4 °F 32.0 °F 61% 30.12 in 10.0 mi South 12.7 mph - N/A   Clear
10:15 AM 46.4 °F 40.4 °F 32.0 °F 57% 30.11 in 10.0 mi South 13.8 mph 19.6 mph N/A   Clear
10:35 AM 48.2 °F - 32.0 °F 54% 30.10 in 10.0 mi South 9.2 mph - N/A   Clear
10:55 AM 50.0 °F - 28.4 °F 43% 30.08 in 10.0 mi SSW 16.1 mph 23.0 mph N/A   Clear
11:15 AM 51.8 °F - 28.4 °F 41% 30.07 in 10.0 mi SSW 15.0 mph 20.7 mph N/A   Clear
11:35 AM 53.6 °F - 28.4 °F 38% 30.05 in 10.0 mi South 15.0 mph 20.7 mph N/A   Clear
11:55 AM 53.6 °F - 28.4 °F 38% 30.03 in 10.0 mi South 16.1 mph 23.0 mph N/A   Clear
12:15 PM 55.4 °F - 28.4 °F 36% 30.02 in 10.0 mi SSW 16.1 mph 19.6 mph N/A   Clear
12:35 PM 55.4 °F - 24.8 °F 31% 30.00 in 10.0 mi SSW 15.0 mph 24.2 mph N/A   Clear
12:55 PM 57.2 °F - 24.8 °F 29% 29.99 in 10.0 mi SSW 15.0 mph 20.7 mph N/A   Clear
1:15 PM 57.2 °F - 24.8 °F 29% 29.98 in 10.0 mi South 17.3 mph 23.0 mph N/A   Clear
1:35 PM 59.0 °F - 24.8 °F 27% 29.97 in 10.0 mi SSW 15.0 mph 24.2 mph N/A   Clear
1:55 PM 60.8 °F - 21.2 °F 22% 29.98 in 10.0 mi SSW 11.5 mph 19.6 mph N/A   Clear
2:15 PM 60.8 °F - 17.6 °F 19% 29.96 in 10.0 mi SSW 18.4 mph 23.0 mph N/A   Clear
2:35 PM 60.8 °F - 15.8 °F 17% 29.95 in 10.0 mi SSW 18.4 mph 21.9 mph N/A   Clear
2:55 PM 60.8 °F - 15.8 °F 17% 29.95 in 10.0 mi SW 13.8 mph 24.2 mph N/A   Clear
3:15 PM 60.8 °F - 15.8 °F 17% 29.96 in 10.0 mi SSW 13.8 mph 20.7 mph N/A   Clear
3:35 PM 60.8 °F - 15.8 °F 17% 29.96 in 10.0 mi SSW 13.8 mph 24.2 mph N/A   Clear
3:55 PM 60.8 °F - 19.4 °F 20% 29.96 in 10.0 mi SSW 11.5 mph 19.6 mph N/A   Clear
4:15 PM 59.0 °F - 26.6 °F 29% 29.96 in 10.0 mi South 10.4 mph 19.6 mph N/A   Clear
4:35 PM 55.4 °F - 32.0 °F 41% 29.97 in 10.0 mi South 10.4 mph 16.1 mph N/A   Clear
4:55 PM 55.4 °F - 33.8 °F 44% 29.98 in 10.0 mi South 13.8 mph 17.3 mph N/A   Clear
5:15 PM 51.8 °F - 35.6 °F 54% 29.98 in 10.0 mi South 12.7 mph 18.4 mph N/A   Clear
5:35 PM 51.8 °F - 37.4 °F 58% 29.99 in 10.0 mi South 11.5 mph - N/A   Clear
5:55 PM 51.8 °F - 37.4 °F 58% 30.00 in 10.0 mi South 12.7 mph - N/A   Clear
6:15 PM 50.0 °F - 37.4 °F 62% 30.01 in 10.0 mi South 13.8 mph 18.4 mph N/A   Clear
6:35 PM 50.0 °F - 39.2 °F 66% 30.02 in 10.0 mi South 11.5 mph 17.3 mph N/A   Clear
6:55 PM 48.2 °F - 39.2 °F 71% 30.03 in 10.0 mi South 11.5 mph 17.3 mph N/A   Clear
7:15 PM 48.2 °F - 39.2 °F 71% 30.03 in 10.0 mi South 13.8 mph - N/A   Clear
7:35 PM 48.2 °F - 39.2 °F 71% 30.04 in 10.0 mi SSW 11.5 mph 16.1 mph N/A   Clear
7:55 PM 48.2 °F - 39.2 °F 71% 30.05 in 10.0 mi SSW 9.2 mph - N/A   Clear
8:15 PM 48.2 °F - 39.2 °F 71% 30.06 in 10.0 mi Calm Calm - N/A   Clear
8:35 PM 46.4 °F - 39.2 °F 76% 30.07 in 10.0 mi Calm Calm - N/A   Clear
8:55 PM 48.2 °F - 39.2 °F 71% 30.08 in 10.0 mi Calm Calm - N/A   Clear
9:15 PM 48.2 °F - 39.2 °F 71% 30.08 in 10.0 mi SW 5.8 mph - N/A   Clear
9:35 PM 46.4 °F 44.3 °F 39.2 °F 76% 30.08 in 10.0 mi SW 4.6 mph - N/A   Clear
9:55 PM 46.4 °F 43.5 °F 39.2 °F 76% 30.09 in 10.0 mi SW 5.8 mph - N/A   Clear
10:15 PM 48.2 °F - 37.4 °F 66% 30.09 in 10.0 mi WSW 5.8 mph - N/A   Clear
10:35 PM 48.2 °F - 35.6 °F 62% 30.09 in 10.0 mi WSW 8.1 mph - N/A   Clear
10:55 PM 50.0 °F - 33.8 °F 54% 30.10 in 10.0 mi West 9.2 mph - N/A   Clear
11:15 PM 48.2 °F - 33.8 °F 58% 30.11 in 10.0 mi West 4.6 mph - N/A   Clear
11:35 PM 48.2 °F - 33.8 °F 58% 30.11 in 10.0 mi West 3.5 mph - N/A   Clear
11:55 PM 46.4 °F 43.5 °F 33.8 °F 62% 30.12 in 10.0 mi WNW 5.8 mph - N/A   Clear